Location: Bay Ridge
(40.6340°N, 74.0146°W)
Time: 19:22:35
(UTC+00:00)

H-2A R/B - Pass Details

Date: 15 November 2019
Orbit: 530 x 652 km, 98.3° (Epoch: 07 December)

Event Time Altitude Azimuth Distance (km) Brightness Sun altitude
Rises 09:41:55 0° 5° (N) 2,981 6.1 -22.9°
Reaches altitude 10° 09:44:13 10° 359° (N) 2,068 5.2 -22.4°
Enters shadow 09:45:42 20° 350° (N) 1,525 4.4 -22.1°
